Wind_Speed
18 20 20 19 19 18 17 15 13 12 13 13 14 16 16 14 14 15 16 16 17 17 18 19 20 21 21 21 20 21 21 21
18 21 21 21 20 19 19 17 15 14 14 14 16 17 15 15 15 15 14 15 16 17 18 19 21 22 22 23 24 24 26 26
21 21 20 19 20 21 19 17 16 15 15 16 17 16 14 13 12 11 12 14 16 18 19 21 22 24 25 24 25 27 26 26
23 22 20 21 23 22 20 18 17 16 17 18 18 16 16 12 10 10 14 17 18 21 22 24 25 27 28 28 28 28 29 29
25 24 23 24 23 21 20 19 18 17 18 19 17 17 14 12 11 13 16 19 22 24 25 27 28 30 31 32 32 33 33 33
28 27 27 25 22 23 22 20 19 20 21 19 17 15 13 13 15 18 21 24 26 28 29 29 30 31 32 32 33 33 35 36
30 30 28 25 26 25 23 21 21 22 21 19 17 15 14 15 18 20 23 27 29 29 30 30 31 31 32 33 33 34 34 35
32 31 31 29 29 27 26 23 24 23 20 20 18 16 16 18 20 23 26 28 29 30 30 31 31 31 32 34 35 36 37 37
31 33 34 32 29 29 27 26 25 23 22 20 19 17 18 20 22 25 28 29 30 30 31 32 33 33 33 34 35 37 37 37
33 32 33 32 32 30 28 26 26 24 22 20 20 19 20 22 25 27 28 30 30 31 32 32 33 33 34 34 35 35 36 37
36 35 34 35 34 31 28 28 26 25 22 21 20 20 22 24 26 28 28 28 29 30 31 32 33 33 33 33 34 36 36 36
36 37 36 36 35 33 31 29 27 25 23 23 21 21 23 26 27 27 28 28 29 29 29 32 33 33 33 32 33 35 35 35
38 39 39 38 36 34 32 30 28 26 25 24 22 23 25 26 27 27 28 28 28 28 28 30 33 33 34 31 30 34 34 36
40 40 41 39 37 36 34 31 29 27 26 25 23 23 25 26 27 27 27 27 26 27 27 27 30 33 34 35 37 32 32 34
41 40 41 40 39 38 35 31 30 28 27 24 23 23 24 24 25 26 25 25 26 26 26 25 27 29 32 34 36 36 36 34
41 41 42 42 41 37 35 33 31 29 26 23 22 21 21 23 25 24 24 24 24 24 24 24 25 27 29 31 31 33 36 39
44 43 44 44 40 37 37 36 31 27 24 23 19 18 21 23 23 23 23 22 23 23 23 23 24 26 28 29 30 30 33 37
46 46 45 43 41 38 38 35 29 26 24 20 16 15 20 25 23 22 22 21 22 22 21 22 23 25 27 28 29 31 34 37
44 45 46 43 42 38 38 33 28 25 23 16 12 15 22 23 22 21 20 21 20 21 20 21 23 25 26 27 28 30 32 36
44 40 42 44 43 39 36 32 29 26 18 13 10 16 22 22 21 20 19 19 19 19 19 21 23 24 25 26 26 28 31 34
Wind_Direction
239 231 234 235 240 239 243 245 249 259 273 289 303 303 303 304 304 306 307 308 307 308 305 303 300 298 297 293 289 286 282 277
232 231 234 247 241 239 245 246 252 263 276 294 298 300 303 304 307 308 311 314 315 313 310 307 304 303 302 299 297 291 286 288
233 236 241 237 236 241 245 247 255 267 286 296 298 299 298 301 305 313 322 325 324 321 316 313 308 305 302 299 294 294 293 288
238 236 233 239 241 243 242 248 259 274 287 294 295 294 299 298 301 318 328 331 332 329 324 319 314 309 305 302 298 293 288 286
237 238 238 242 240 238 242 252 264 277 287 290 288 294 293 291 299 308 315 322 325 324 322 319 315 310 306 303 300 297 294 289
237 238 240 245 241 242 245 253 266 279 287 284 286 283 276 283 297 309 317 320 320 318 316 314 312 309 306 303 298 294 292 290
238 238 243 244 242 246 249 255 267 277 279 276 276 265 267 283 298 309 314 317 317 317 316 315 314 313 311 309 308 306 303 299
239 240 244 244 247 245 249 256 266 272 266 269 263 261 273 286 298 307 311 313 315 316 316 315 315 315 315 314 312 311 309 307
239 240 244 246 246 245 249 257 267 262 261 261 256 262 275 287 299 307 309 313 314 315 316 317 317 317 315 313 313 312 310 308
239 241 244 247 244 245 250 261 263 258 260 255 255 264 277 291 302 305 310 314 314 316 317 317 317 317 317 317 316 314 313 314
240 240 243 245 244 246 253 261 257 258 256 252 257 269 282 294 301 306 312 312 314 315 316 317 318 318 316 318 320 319 321 318
238 238 243 244 243 246 254 255 254 257 254 254 260 271 282 293 302 310 311 311 314 316 318 317 317 315 315 320 323 318 322 321
239 242 244 243 244 247 251 249 252 253 252 254 261 269 284 296 307 310 307 311 314 316 317 316 315 315 318 320 325 325 328 326
244 246 244 242 243 247 246 245 249 249 251 253 259 271 286 299 307 305 307 311 314 315 316 318 317 319 322 325 325 327 335 336
246 246 243 241 242 247 245 244 245 247 248 253 259 274 289 300 302 303 308 311 312 316 318 319 320 323 323 326 326 328 328 336
244 242 240 240 243 247 243 242 244 247 249 251 261 275 289 300 300 304 306 308 313 316 318 321 323 322 322 324 325 326 330 330
240 239 238 239 243 243 240 241 246 246 248 250 257 274 292 300 301 302 304 310 314 316 318 319 319 319 321 322 324 327 329 329
242 238 236 238 240 240 239 244 243 244 244 247 257 282 307 300 298 300 304 309 313 314 315 316 317 320 321 322 323 326 328 328
247 240 236 236 239 239 239 240 239 237 238 246 271 299 298 295 296 299 305 309 312 313 315 315 320 319 321 321 323 327 330 332
249 241 240 237 236 236 236 235 232 230 238 248 281 306 294 295 297 300 305 311 314 312 314 317 315 318 321 321 326 329 332 339
Height
3135 3137 3140 3142 3144 3145 3147 3148 3148 3149 3150 3149 3150 3150 3150 3150 3149 3149 3148 3148 3147 3146 3145 3144 3144 3143 3142 3141 3141 3140 3140 3140
3133 3135 3137 3139 3140 3142 3144 3145 3146 3147 3147 3147 3147 3147 3147 3147 3147 3146 3146 3145 3145 3144 3143 3142 3141 3140 3139 3138 3138 3136 3134 3135
3130 3132 3134 3136 3138 3140 3141 3142 3144 3144 3144 3144 3144 3144 3144 3145 3144 3143 3142 3142 3141 3139 3138 3137 3136 3135 3134 3134 3133 3132 3132 3130
3128 3129 3132 3133 3134 3136 3138 3139 3140 3141 3141 3141 3141 3140 3140 3140 3140 3139 3139 3137 3136 3134 3133 3131 3130 3129 3128 3127 3126 3126 3125 3124
3125 3126 3128 3130 3131 3133 3134 3135 3136 3137 3137 3137 3137 3137 3136 3136 3136 3136 3135 3134 3132 3130 3129 3127 3125 3123 3121 3120 3119 3117 3116 3116
3121 3123 3124 3126 3127 3128 3130 3131 3132 3132 3132 3133 3133 3133 3133 3133 3132 3132 3130 3129 3127 3126 3124 3122 3119 3117 3114 3113 3111 3110 3108 3107
3117 3119 3121 3123 3123 3124 3126 3126 3127 3128 3129 3129 3130 3130 3130 3130 3129 3128 3127 3125 3123 3122 3119 3117 3113 3110 3107 3105 3102 3100 3098 3096
3112 3115 3116 3118 3119 3120 3121 3122 3123 3124 3125 3126 3127 3127 3126 3126 3125 3124 3123 3122 3120 3117 3114 3111 3107 3104 3102 3099 3096 3093 3090 3087
3108 3110 3111 3112 3115 3116 3117 3118 3119 3120 3121 3121 3122 3123 3122 3122 3121 3121 3119 3117 3114 3111 3108 3104 3101 3098 3096 3093 3090 3086 3083 3081
3102 3104 3106 3108 3110 3111 3112 3114 3115 3116 3117 3117 3118 3119 3118 3118 3117 3116 3114 3111 3108 3105 3101 3097 3094 3091 3089 3087 3084 3080 3076 3073
3097 3099 3100 3102 3104 3106 3107 3108 3110 3111 3113 3113 3114 3115 3115 3114 3113 3111 3108 3106 3103 3099 3095 3091 3088 3086 3083 3080 3077 3072 3069 3066
3090 3093 3095 3097 3098 3101 3102 3103 3105 3107 3108 3109 3110 3111 3111 3110 3108 3105 3103 3100 3097 3093 3089 3085 3081 3080 3078 3076 3072 3066 3063 3059
3083 3087 3089 3091 3093 3095 3097 3098 3100 3102 3103 3105 3106 3106 3106 3104 3102 3100 3097 3094 3091 3088 3085 3081 3076 3074 3070 3070 3066 3060 3057 3051
3077 3080 3083 3084 3087 3089 3091 3093 3095 3097 3099 3100 3101 3101 3100 3099 3096 3094 3091 3088 3086 3083 3079 3076 3071 3068 3063 3059 3055 3057 3052 3047
3069 3073 3077 3078 3080 3082 3086 3088 3089 3091 3093 3095 3095 3095 3094 3093 3091 3089 3086 3083 3080 3077 3074 3071 3068 3064 3058 3056 3049 3045 3043 3044
3061 3066 3069 3070 3073 3077 3080 3082 3083 3086 3088 3089 3090 3090 3089 3087 3086 3083 3081 3078 3075 3072 3069 3066 3063 3060 3056 3052 3047 3041 3035 3030
3052 3057 3061 3063 3068 3072 3073 3074 3078 3080 3082 3083 3085 3084 3083 3081 3080 3078 3076 3073 3070 3067 3064 3061 3059 3056 3052 3048 3044 3039 3033 3027
3045 3049 3054 3059 3061 3066 3066 3069 3072 3074 3076 3078 3079 3078 3077 3076 3075 3073 3071 3068 3065 3063 3059 3057 3054 3051 3048 3043 3039 3035 3029 3023
3036 3041 3047 3053 3055 3059 3060 3063 3066 3069 3070 3072 3072 3071 3072 3071 3069 3068 3065 3063 3060 3058 3055 3052 3049 3047 3044 3040 3036 3032 3027 3020
3027 3034 3040 3045 3048 3051 3055 3058 3060 3063 3065 3065 3064 3066 3067 3066 3065 3063 3060 3058 3054 3053 3051 3048 3046 3043 3040 3037 3033 3028 3023 3015